time_stamp(utc),avg(mph),gust(mph),direction(deg),12m_air_temp(f),sonic_u(cm/s),sonic_v(cm/s),sonic_w(cm/s),pressure,2m_air_temp(f),pyranometer(W/m^2)
"2019-02-18 00:02:07+00",8.7,9.7,,35.9,251,-275,4,1015.9,35.9,0
"2019-02-18 00:07:07+00",7.1,8.1,,36,181,-237,12,1015.74,36,0
"2019-02-18 00:12:07+00",8.7,9.7,,36,238,-283,-2,1015.58,36,0
"2019-02-18 00:17:07+00",9.5,10.5,,36.1,269,-304,6,1015.63,36,0
"2019-02-18 00:22:07+00",9.1,11.1,,36.1,279,-280,2,1015.32,36,0
"2019-02-18 00:27:07+00",11.0,12.0,,36.1,273,-380,-6,1015.1,36,0
"2019-02-18 00:32:07+00",10.1,12.1,,36.1,251,-349,9,1014.84,35.9,0
"2019-02-18 00:37:07+00",11.0,13.0,,36.1,294,-381,-1,1014.46,35.9,0
"2019-02-18 00:42:07+00",9.5,11.5,,36.1,306,-282,-8,1014.63,35.9,0
"2019-02-18 00:47:07+00",10.4,11.4,,36.2,339,-298,-3,1014.73,36,0
"2019-02-18 00:52:07+00",11.4,12.4,,36.2,370,-329,0,1014.53,36,0
"2019-02-18 00:57:07+00",9.5,10.5,,36.3,319,-266,8,1014.18,36,0
"2019-02-18 01:02:07+00",9.7,10.7,,36.3,318,-280,17,1014.26,36,0
"2019-02-18 01:07:07+00",9.5,10.5,,36.4,309,-271,3,1014.26,36,0
"2019-02-18 01:12:07+00",10.3,11.3,,36.4,345,-289,17,1013.91,36,0
"2019-02-18 01:17:07+00",9.8,10.8,,36.5,297,-311,-1,1013.94,36,0
"2019-02-18 01:22:07+00",10.9,12.9,,36.6,253,-399,-4,1013.95,36.1,0
"2019-02-18 01:27:07+00",9.9,11.9,,36.6,215,-370,-5,1013.82,36.2,0
"2019-02-18 01:32:07+00",10.3,12.3,,36.7,213,-390,7,1013.86,36.2,0
"2019-02-18 01:37:07+00",12.8,15.8,,36.7,258,-494,-19,1013.65,36.3,0
"2019-02-18 01:42:07+00",11.5,13.5,,36.7,233,-439,-10,1013.54,36.4,0
"2019-02-18 01:47:07+00",10.8,11.8,,36.9,240,-398,-3,1013.49,36.4,0
"2019-02-18 01:52:07+00",10.5,12.5,,37,161,-423,-3,1013.72,36.6,0
"2019-02-18 01:57:07+00",10.6,12.6,,37.1,216,-393,-2,1013.64,36.7,0
"2019-02-18 02:02:07+00",9.6,11.6,,37.2,218,-351,-3,1013.58,36.8,0
"2019-02-18 02:07:07+00",10.5,13.5,,37.4,224,-391,5,1013.41,36.9,0
"2019-02-18 02:12:07+00",11.1,13.1,,37.5,251,-402,-12,1013.32,37.1,0
"2019-02-18 02:17:07+00",11.8,13.8,,37.5,274,-434,-5,1013.11,37.1,0
"2019-02-18 02:22:07+00",11.3,12.3,,37.6,301,-381,-7,1013.12,37.1,0
"2019-02-18 02:27:07+00",11.1,12.1,,37.6,329,-362,-10,1013.09,37.1,0
"2019-02-18 02:32:07+00",8.0,9.0,,37.6,236,-257,0,1013.49,37.1,0
"2019-02-18 02:37:07+00",8.8,9.8,,37.6,278,-260,4,1013.45,37.1,0
"2019-02-18 02:42:07+00",7.7,8.7,,37.7,249,-220,2,1013.42,37.1,0
"2019-02-18 02:47:07+00",8.3,10.3,,37.7,238,-263,2,1013.43,37.1,0
"2019-02-18 02:52:07+00",8.0,9.0,,37.8,206,-280,-15,1013.33,37.1,0
"2019-02-18 02:57:07+00",9.1,11.1,,37.8,235,-304,-3,1013.13,37.2,0
"2019-02-18 03:02:07+00",9.6,11.6,,37.7,311,-275,3,1012.67,37.1,0
"2019-02-18 03:07:07+00",9.8,10.8,,37.6,311,-297,-12,1012.68,37.1,0
"2019-02-18 03:12:07+00",8.6,10.6,,37.6,288,-238,9,1012.51,37.1,0
"2019-02-18 03:17:07+00",6.3,7.3,,37.6,218,-155,13,1012.81,37.1,0
"2019-02-18 03:22:07+00",5.7,6.7,,37.7,208,-133,18,1013,37.2,0
"2019-02-18 03:27:07+00",5.9,6.9,,37.8,231,-108,14,1012.79,37.2,0
"2019-02-18 03:32:07+00",6.9,8.9,,37.8,263,-131,18,1012.57,37.2,0
"2019-02-18 03:37:07+00",8.0,9.0,,37.8,282,-206,-1,1012.58,37.2,0
"2019-02-18 03:42:07+00",9.1,11.1,,37.8,269,-286,0,1012.37,37.3,0
"2019-02-18 03:47:07+00",6.6,7.6,,37.8,193,-211,6,1012.81,37.4,0
"2019-02-18 03:52:07+00",4.0,5.0,,37.9,145,-71,2,1012.94,37.4,0
"2019-02-18 03:57:07+00",2.6,3.6,,37.8,106,4,5,1013.1,37.4,0
"2019-02-18 04:02:07+00",2.0,2.0,,37.8,26,64,-6,1013.26,37.3,0
"2019-02-18 04:07:07+00",2.3,3.3,,37.8,46,73,3,1013.13,37.3,0
"2019-02-18 04:12:07+00",2.1,2.1,,37.8,59,48,4,1012.96,37.3,0
"2019-02-18 04:17:07+00",1.1,2.1,,37.7,43,21,1,1013.02,37.3,0
"2019-02-18 04:22:07+00",0.0,0.0,,37.6,10,12,7,1013.18,37.2,0
"2019-02-18 04:27:07+00",0.0,0.0,,37.6,17,-19,0,1013.03,37.2,0
"2019-02-18 04:32:07+00",3.2,4.2,,37.6,82,-106,-1,1012.63,37.2,0
"2019-02-18 04:37:07+00",7.6,8.6,,37.5,205,-258,-5,1011.94,37.3,0
"2019-02-18 04:42:07+00",10.1,11.1,,37.5,265,-345,-7,1011.37,37.3,0
"2019-02-18 04:47:07+00",12.0,13.0,,37.5,262,-455,-6,1011.11,37.3,0
"2019-02-18 04:52:07+00",10.2,12.2,,37.7,225,-388,-6,1011.13,37.4,0
"2019-02-18 04:57:07+00",12.6,13.6,,37.8,256,-487,4,1010.62,37.5,0
"2019-02-18 05:02:07+00",6.9,8.9,,38,84,-267,5,1011.32,37.6,0
"2019-02-18 05:07:07+00",2.9,3.9,,38.1,-12,-100,16,1011.67,37.8,0
"2019-02-18 05:12:07+00",3.5,3.5,,38.2,-111,90,11,1012.11,37.8,0
"2019-02-18 05:17:07+00",1.7,1.7,,38.2,17,-61,2,1011.56,37.8,0
"2019-02-18 05:22:07+00",0.0,0.0,,38.2,15,-6,8,1011.57,37.8,0
"2019-02-18 05:27:07+00",0.0,0.0,,38.2,-12,-45,-11,1011.65,37.8,0
"2019-02-18 05:32:07+00",2.7,3.7,,38.2,43,-119,-6,1011.56,37.9,0
"2019-02-18 05:37:07+00",4.4,5.4,,38.2,78,-166,3,1011.35,37.9,0
"2019-02-18 05:42:07+00",5.4,6.4,,38.3,64,-213,-2,1011.26,38,0
"2019-02-18 05:47:07+00",6.5,8.5,,38.3,39,-277,-2,1011.22,38,0
"2019-02-18 05:52:07+00",8.9,9.9,,38.4,79,-364,-6,1010.73,38.2,0
"2019-02-18 05:57:07+00",8.7,10.7,,38.4,26,-365,-24,1010.84,38.2,0
"2019-02-18 06:02:07+00",3.8,5.8,,38.5,-54,-144,3,1011.34,38.2,0
"2019-02-18 06:07:07+00",6.2,8.2,,38.5,12,-255,2,1010.96,38.2,0
"2019-02-18 06:12:07+00",11.0,13.0,,38.5,114,-453,-8,1010.21,38.2,0
"2019-02-18 06:17:07+00",13.3,15.3,,38.5,123,-556,-14,1010.05,38.3,0
"2019-02-18 06:22:07+00",13.6,15.6,,38.5,183,-559,-7,1009.81,38.3,0
"2019-02-18 06:27:07+00",17.0,19.0,,38.5,235,-670,23,1009.16,38.3,0
"2019-02-18 06:32:07+00",19.2,23.2,,38.5,794,164,555,1008.52,38.3,0
"2019-02-18 06:37:07+00",14.6,18.6,,38.5,246,-582,9,1008.84,38.3,0
"2019-02-18 06:42:07+00",7.3,8.3,,38.7,-255,187,20,1011.23,38.4,0
"2019-02-18 06:47:07+00",4.3,5.3,,38.8,-129,117,22,1011.03,38.4,0
"2019-02-18 06:52:07+00",2.6,3.6,,38.8,-94,42,-21,1010.96,38.4,0
"2019-02-18 06:57:07+00",2.5,5.5,,38.8,-55,-89,-4,1010.51,38.4,0
"2019-02-18 07:02:07+00",7.8,9.8,,38.8,121,-312,3,1009.96,38.4,0
"2019-02-18 07:07:07+00",11.8,13.8,,38.8,148,-480,-8,1009.44,38.4,0
"2019-02-18 07:12:07+00",12.9,14.9,,38.8,269,-485,-6,1008.92,38.4,0
"2019-02-18 07:17:07+00",15.2,17.2,,38.8,257,-613,-12,1008.53,38.4,0
"2019-02-18 07:22:07+00",9.9,12.9,,38.8,103,-392,0,1009.02,38.5,0
"2019-02-18 07:27:07+00",10.5,11.5,,38.9,173,-411,-3,1008.92,38.5,0
"2019-02-18 07:32:07+00",9.8,10.8,,38.8,196,-374,8,1008.42,38.5,0
"2019-02-18 07:37:07+00",4.0,6.0,,38.8,53,-131,12,1008.87,38.5,0
"2019-02-18 07:42:07+00",2.5,3.5,,38.9,-87,-41,1,1009.52,38.6,0
"2019-02-18 07:47:07+00",2.1,3.1,,38.9,-73,7,20,1009.48,38.6,0
"2019-02-18 07:52:07+00",1.7,1.7,,38.9,-13,-68,9,1009.33,38.6,0
"2019-02-18 07:57:07+00",5.2,5.2,,38.9,107,-188,1,1008.76,38.6,0
"2019-02-18 08:02:07+00",5.9,6.9,,38.9,77,-236,-1,1008.6,38.6,0
"2019-02-18 08:07:07+00",7.3,9.3,,38.9,151,-270,-3,1008.17,38.6,0
"2019-02-18 08:12:07+00",6.7,7.7,,38.9,132,-255,4,1008.03,38.6,0
"2019-02-18 08:17:07+00",7.5,8.5,,38.9,138,-291,-8,1008,38.6,0
"2019-02-18 08:22:07+00",9.2,10.2,,38.9,191,-350,-9,1007.78,38.7,0
"2019-02-18 08:27:07+00",8.3,9.3,,38.9,122,-331,11,1007.79,38.7,0
"2019-02-18 08:32:07+00",7.4,8.4,,38.9,94,-293,5,1007.54,38.7,0
"2019-02-18 08:37:07+00",7.4,9.4,,38.9,54,-300,-6,1007.52,38.6,0
"2019-02-18 08:42:07+00",5.6,7.6,,38.9,24,-230,5,1007.96,38.6,0
"2019-02-18 08:47:07+00",7.5,8.5,,38.9,51,-309,-17,1007.78,38.7,0
"2019-02-18 08:52:07+00",7.4,10.4,,38.9,82,-299,10,1007.32,38.7,0
"2019-02-18 08:57:07+00",8.2,10.2,,38.9,111,-327,-4,1007.21,38.7,0
"2019-02-18 09:02:07+00",7.2,10.2,,39,30,-301,-4,1007.22,38.7,0
"2019-02-18 09:07:07+00",6.2,7.2,,39,20,-265,-8,1007.34,38.8,0
"2019-02-18 09:12:07+00",6.3,8.3,,39.1,36,-256,-14,1007.14,38.8,0
"2019-02-18 09:17:07+00",6.3,7.3,,39.1,64,-255,3,1007.11,38.9,0
"2019-02-18 09:22:07+00",2.5,3.5,,39.1,86,-6,9,1007.15,38.9,0
"2019-02-18 09:27:07+00",0.0,0.0,,39.2,56,6,6,1007.44,38.9,0
"2019-02-18 09:32:07+00",2.3,3.3,,39.2,85,11,8,1007.06,38.9,0
"2019-02-18 09:37:07+00",0.0,0.0,,39.2,42,-27,7,1007.01,38.9,0
"2019-02-18 09:42:07+00",0.0,0.0,,39.2,41,-29,0,1006.94,38.9,0
"2019-02-18 09:47:07+00",0.0,0.0,,39.2,38,-51,-9,1006.96,38.9,0
"2019-02-18 09:52:07+00",0.0,0.0,,39.2,-27,-23,1,1007.09,38.9,0
"2019-02-18 09:57:07+00",0.0,0.0,,39.2,19,-54,-1,1006.89,38.9,0
"2019-02-18 10:02:07+00",0.0,0.0,,39.2,65,-20,2,1006.81,38.9,0
"2019-02-18 10:07:07+00",0.0,0.0,,39.2,71,-31,1,1006.87,38.9,0
"2019-02-18 10:12:07+00",0.0,0.0,,39.2,88,-96,0,1007.07,38.9,0
"2019-02-18 10:17:07+00",4.9,5.9,,39.2,166,-120,2,1006.59,38.9,0
"2019-02-18 10:22:07+00",8.5,9.5,,39.1,317,-184,5,1005.82,38.9,0
"2019-02-18 10:27:07+00",5.3,5.3,,39.1,170,-138,6,1006.32,38.9,0
"2019-02-18 10:32:07+00",4.7,4.7,,39.1,191,-50,7,1006.24,38.9,0
"2019-02-18 10:37:07+00",4.0,5.0,,39,163,26,15,1006.26,38.8,0
"2019-02-18 10:42:07+00",3.5,3.5,,39,121,70,7,1006.37,38.8,0
"2019-02-18 10:47:07+00",2.7,2.7,,39.1,27,96,-4,1006.89,38.8,0
"2019-02-18 10:52:07+00",2.3,2.3,,39.1,39,73,8,1006.8,38.9,0
"2019-02-18 10:57:07+00",4.3,4.3,,39.1,-4,174,3,1006.81,38.9,0
"2019-02-18 11:02:07+00",6.5,7.5,,39.1,-26,275,24,1006.78,38.9,0
"2019-02-18 11:07:07+00",6.1,7.1,,39,29,265,-2,1006.48,38.9,0
"2019-02-18 11:12:07+00",9.8,9.8,,39.1,-146,389,19,1007.35,38.9,0
"2019-02-18 11:17:07+00",9.3,10.3,,39.2,-79,393,15,1007.2,38.9,0
"2019-02-18 11:22:07+00",6.8,7.8,,39.2,48,283,2,1007.07,39,0
"2019-02-18 11:27:07+00",7.7,8.7,,39.2,-7,332,20,1007.48,39,0
"2019-02-18 11:32:07+00",6.8,8.8,,39.2,108,257,7,1006.92,39,0
"2019-02-18 11:37:07+00",7.5,7.5,,39.1,180,254,9,1006.53,38.9,0
"2019-02-18 11:42:07+00",7.1,8.1,,39,81,281,4,1006.91,38.8,0
"2019-02-18 11:47:07+00",8.2,9.2,,39,-34,348,21,1007.29,38.9,0
"2019-02-18 11:52:07+00",6.4,7.4,,39,68,257,6,1006.84,38.8,0
"2019-02-18 11:57:07+00",5.2,6.2,,38.9,117,177,6,1006.68,38.8,0
"2019-02-18 12:02:07+00",8.4,8.4,,38.9,-47,356,14,1007.3,38.8,0
"2019-02-18 12:07:07+00",7.6,8.6,,38.9,-21,328,21,1007.17,38.8,0
"2019-02-18 12:12:07+00",6.5,7.5,,38.9,139,224,6,1006.51,38.7,0
"2019-02-18 12:17:07+00",6.0,7.0,,38.8,118,218,2,1006.48,38.7,0
"2019-02-18 12:22:07+00",4.3,4.3,,38.8,100,141,8,1006.38,38.7,0
"2019-02-18 12:27:07+00",6.4,7.4,,38.8,-104,247,20,1007.58,38.7,0
"2019-02-18 12:32:07+00",5.1,6.1,,38.8,-136,162,19,1007.12,38.7,0
"2019-02-18 12:37:07+00",7.0,7.0,,38.9,-124,267,17,1007.43,38.7,0
"2019-02-18 12:42:07+00",7.3,8.3,,38.9,-229,217,32,1007.83,38.7,0
"2019-02-18 12:47:07+00",7.3,8.3,,39,-278,165,26,1008.33,38.8,0
"2019-02-18 12:52:07+00",6.4,6.4,,39,-223,166,23,1008,38.8,0
"2019-02-18 12:57:07+00",4.2,5.2,,39,-145,103,13,1007.57,38.8,0
"2019-02-18 13:02:07+00",6.2,6.2,,39,-223,148,20,1007.87,38.8,0
"2019-02-18 13:07:07+00",7.4,8.4,,39.1,-299,140,22,1008.23,38.8,0
"2019-02-18 13:12:07+00",7.6,8.6,,39.1,-304,154,22,1008.46,38.9,0
"2019-02-18 13:17:07+00",8.1,9.1,,39.1,-357,59,21,1008.5,38.9,0
"2019-02-18 13:22:07+00",8.5,8.5,,39.1,-371,88,28,1008.47,38.9,0
"2019-02-18 13:27:07+00",7.9,8.9,,39.1,-345,78,25,1008.35,38.9,3.9
"2019-02-18 13:32:07+00",9.0,10.0,,39.1,-393,89,19,1008.33,38.9,0.1
"2019-02-18 13:37:07+00",9.5,10.5,,39.1,-401,135,32,1008.57,39,7
"2019-02-18 13:42:07+00",10.3,11.3,,39.1,-438,149,23,1008.38,39.1,53.6
"2019-02-18 13:47:07+00",9.7,10.7,,39.1,-412,123,30,1008.18,39.1,66.7
"2019-02-18 13:52:07+00",9.9,10.9,,39.2,-408,147,41,1008.16,39.2,75.9
"2019-02-18 13:57:07+00",10.4,11.4,,39.2,-445,143,32,1008.21,39.2,65.9
"2019-02-18 14:02:07+00",10.3,11.3,,39.2,-436,126,36,1008.31,39.2,58.4
"2019-02-18 14:07:07+00",11.8,12.8,,39.3,-488,199,41,1008.08,39.2,70.1
"2019-02-18 14:12:07+00",12.9,13.9,,39.5,-518,239,40,1008.46,39.2,57.5
"2019-02-18 14:17:07+00",14.8,16.8,,39.6,-599,283,54,1008.57,39.1,80.3
"2019-02-18 14:22:07+00",15.2,17.2,,39.6,-611,313,58,1008.68,39.1,100.7
"2019-02-18 14:27:07+00",15.5,17.5,,39.7,-624,327,61,1008.75,39.3,124.1
"2019-02-18 14:32:07+00",15.3,17.3,,39.8,-604,272,69,1009.04,39.4,134.2
"2019-02-18 14:37:07+00",16.7,19.7,,39.8,-321,-258,386,1009.22,39.6,151.6
"2019-02-18 14:52:07+00",16.2,19.2,,40,-669,280,71,1009.3,40.1,132.6
"2019-02-18 14:57:07+00",17.4,20.4,,40.2,-707,317,56,1009.36,40.6,294.3
"2019-02-18 15:02:07+00",16.8,18.8,,40.3,-659,360,48,1009.37,41.1,384.2
"2019-02-18 15:07:07+00",18.1,20.1,,40.5,-684,447,42,1009.24,41.5,292.2
"2019-02-18 15:12:07+00",18.1,20.1,,40.6,-668,438,53,1009.39,41.5,265.2
"2019-02-18 15:17:07+00",19.4,22.4,,40.6,-726,473,56,1009.34,41.5,129.9
"2019-02-18 15:22:07+00",19.2,21.2,,40.9,-737,436,51,1009.41,41.5,161.9
"2019-02-18 15:27:07+00",22.7,23.7,,41.2,-840,548,56,1009.46,41.6,149.1
"2019-02-18 15:32:07+00",19.4,21.4,,41.4,-711,458,64,1009.59,41.8,190.7
"2019-02-18 15:37:07+00",24.2,27.2,,41.6,-2012,2519,-1017,1009.69,41.8,201.4
"2019-02-18 15:52:07+00",20.3,23.3,,42.5,-1030,994,-244,1009.87,43.1,290.6
"2019-02-18 15:57:07+00",25.7,29.7,,42.8,-913,675,62,1009.89,43.5,287.9
"2019-02-18 16:02:07+00",24.8,28.8,,43,-918,623,57,1010.07,43.6,403.2
"2019-02-18 16:07:07+00",23.8,27.8,,43.3,-819,704,72,1010.02,44,217.2
"2019-02-18 16:12:07+00",27.1,30.1,,43.4,-982,728,65,1010.14,43.8,263
"2019-02-18 16:17:07+00",27.2,30.2,,43.5,-966,756,56,1010.39,43.9,276.6
"2019-02-18 16:22:07+00",30.1,33.1,,43.8,-1104,808,83,1010.46,44,294
"2019-02-18 16:27:07+00",21.6,24.6,,43.8,-688,696,63,1010.48,44.3,317.5
"2019-02-18 16:32:07+00",25.2,31.2,,43.6,-922,670,85,1010.48,44.1,170.9
"2019-02-18 16:37:07+00",23.5,26.5,,43.6,-882,592,62,1010.7,43.9,275.9
"2019-02-18 16:42:07+00",21.3,25.3,,43.8,-783,515,78,1010.82,44.4,350.2
"2019-02-18 16:47:07+00",19.2,24.2,,44.2,-720,489,59,1010.67,45.1,417.9
"2019-02-18 16:52:07+00",23.5,25.5,,44.4,-854,625,73,1010.59,45.2,204.3
"2019-02-18 16:57:07+00",22.9,27.9,,44.6,-769,663,53,1010.59,45.3,336.8
"2019-02-18 17:02:07+00",27.8,33.8,,44.6,-903,843,70,1010.58,45.2,172.8
"2019-02-18 17:07:07+00",27.2,31.2,,44.6,-918,818,71,1010.64,45.3,306.3
"2019-02-18 17:12:07+00",25.6,28.6,,44.6,-861,775,78,1010.75,45.3,470.4
"2019-02-18 17:17:07+00",25.5,28.5,,44.8,-945,661,65,1010.74,45.6,367.1
"2019-02-18 17:22:07+00",27.9,31.9,,45,-1131,565,59,1010.74,46.1,458.9
"2019-02-18 17:27:07+00",36.5,41.5,,45.3,-1442,779,101,1010.64,46.2,341.6
"2019-02-18 17:32:07+00",31.1,37.1,,44.7,-1245,622,111,1010.87,45.3,236.3
"2019-02-18 17:37:07+00",27.8,32.8,,44.3,-1090,602,76,1011.04,44.6,112
"2019-02-18 17:42:07+00",29.4,32.4,,44.7,-1133,686,105,1011.17,45,348.5
"2019-02-18 17:47:07+00",34.4,39.4,,44.8,-1385,680,81,1010.84,45.7,388.3
"2019-02-18 17:52:07+00",32.0,37.0,,44.8,-1294,623,79,1010.88,45.9,450.7
"2019-02-18 17:57:07+00",30.2,36.2,,44.7,-1255,560,84,1010.79,45.8,441.2
"2019-02-18 18:02:07+00",31.7,35.7,,44.4,-1309,606,86,1010.92,45.3,151.4
"2019-02-18 18:07:07+00",27.1,32.1,,44.8,-1073,603,90,1011.08,45.7,392
"2019-02-18 18:12:07+00",27.4,31.4,,44.8,-1084,565,49,1011.2,45.6,138.1
"2019-02-18 18:17:07+00",23.9,27.9,,45,-879,600,96,1011.22,46,359.5
"2019-02-18 18:22:07+00",24.9,29.9,,44.5,-990,535,86,1011.19,45.2,111
"2019-02-18 18:27:07+00",22.7,26.7,,44.7,-873,526,68,1011.12,45.4,227.3
"2019-02-18 18:32:07+00",29.0,32.0,,44.6,-1120,661,72,1011.14,45.2,143.4
"2019-02-18 18:37:07+00",32.6,36.6,,44.8,-1332,608,83,1011.22,45.1,155.9
"2019-02-18 18:42:07+00",32.0,39.0,,45.1,-1167,870,101,1011.21,45.7,280.8
"2019-02-18 18:47:07+00",29.8,33.8,,45.1,-1094,777,92,1011.33,45.8,248.5
"2019-02-18 18:52:07+00",31.0,36.0,,44.9,-1203,711,84,1011.36,45.7,265.9
"2019-02-18 18:57:07+00",33.1,38.1,,44.7,-1216,866,94,1011.33,45.4,158.9
"2019-02-18 19:02:07+00",31.7,35.7,,44.4,-1230,745,79,1011.55,44.9,113.7
"2019-02-18 19:07:07+00",27.6,32.6,,44.3,-1067,615,69,1011.58,44.8,134.1
"2019-02-18 19:12:07+00",23.5,25.5,,44.2,-900,549,75,1011.7,44.6,120.3
"2019-02-18 19:17:07+00",24.8,30.8,,44.1,-1012,470,67,1011.7,44.7,118.2
"2019-02-18 19:22:07+00",28.3,34.3,,44.1,-1126,592,74,1011.61,44.4,42.4
"2019-02-18 19:27:07+00",23.3,26.3,,43.9,-893,551,67,1011.79,44.1,35.9
"2019-02-18 19:32:07+00",25.5,29.5,,43.9,-1038,524,83,1011.82,43.9,24.9
"2019-02-18 19:37:07+00",24.6,27.6,,43.8,-888,675,99,1012,43.7,9.5
"2019-02-18 19:42:07+00",25.3,29.3,,43.8,-1006,550,73,1012.08,43.6,8.3
"2019-02-18 19:47:07+00",21.8,25.8,,43.7,-864,461,61,1012.3,43.6,25.7
"2019-02-18 19:52:07+00",24.6,29.6,,43.7,-942,581,72,1012.28,43.6,23.9
"2019-02-18 19:57:07+00",24.7,28.7,,43.8,-936,622,84,1012.27,43.7,40.8
"2019-02-18 20:02:07+00",26.9,29.9,,43.8,-994,669,79,1012.34,43.7,47.3
"2019-02-18 20:07:07+00",24.7,27.7,,43.7,-857,693,77,1012.57,43.7,24.5
"2019-02-18 20:12:07+00",27.5,31.5,,43.5,-894,854,77,1012.71,43.6,40.1
"2019-02-18 20:17:07+00",23.2,27.2,,43.2,-737,731,60,1012.78,43.4,46.6
"2019-02-18 20:22:07+00",24.5,29.5,,43.3,-869,688,70,1012.74,43.4,47.2
"2019-02-18 20:27:07+00",29.1,32.1,,43.4,-975,861,80,1012.83,43.4,70.3
"2019-02-18 20:32:07+00",22.9,26.9,,43.4,-841,580,76,1013.01,43.4,81.7
"2019-02-18 20:37:07+00",28.8,32.8,,43.6,-1132,610,67,1013.07,43.5,62.1
"2019-02-18 20:42:07+00",32.1,38.1,,43.5,-1236,730,87,1013.1,43.4,53.1
"2019-02-18 20:47:07+00",30.0,33.0,,43.3,-1177,649,40,1013.15,43.2,37
"2019-02-18 20:52:07+00",33.6,38.6,,43.4,-1255,903,94,1013.38,43.3,71.7
"2019-02-18 20:57:07+00",30.1,35.1,,43.4,-1172,629,97,1013.5,43.5,105.7
"2019-02-18 21:02:07+00",31.0,35.0,,43.3,-1216,677,91,1013.49,43.4,39.1
"2019-02-18 21:07:07+00",24.5,32.5,,43,-952,578,70,1013.75,43.1,27.1
"2019-02-18 21:12:07+00",25.3,28.3,,42.9,-946,629,84,1013.94,42.9,21.5
"2019-02-18 21:17:07+00",31.0,37.0,,42.8,-1115,825,115,1014.03,42.7,33.9
"2019-02-18 21:22:07+00",29.7,34.7,,42.6,-1165,673,94,1014.06,42.6,30.3
"2019-02-18 21:27:07+00",35.7,41.7,,42.6,-1399,792,87,1014.07,42.5,59
"2019-02-18 21:32:07+00",30.5,38.5,,42.4,-1058,858,128,1014.32,42.3,23.8
"2019-02-18 21:37:07+00",39.0,42.0,,42.2,-1266,1232,100,1014.43,42.1,11.2
"2019-02-18 21:42:07+00",29.1,36.1,,41.9,-969,861,92,1014.77,41.8,6.9
"2019-02-18 21:47:07+00",34.5,41.5,,41.9,-1135,1033,94,1014.89,41.7,1.1
"2019-02-18 21:52:07+00",34.4,39.4,,41.6,-1129,1058,90,1015.01,41.5,1.7
"2019-02-18 21:57:07+00",37.1,42.1,,41.6,-1299,1051,95,1015.07,41.3,0.7
"2019-02-18 22:02:07+00",33.3,39.3,,41.3,-1145,977,102,1015.14,41.1,0
"2019-02-18 22:07:07+00",30.1,34.1,,41.2,-1117,780,99,1015.41,40.9,0
"2019-02-18 22:12:07+00",31.9,37.9,,41.2,-1218,780,102,1015.69,40.9,0
"2019-02-18 22:17:07+00",31.1,36.1,,41,-1270,609,68,1015.98,40.7,0
"2019-02-18 22:22:07+00",29.3,33.3,,41,-1109,695,82,1016.21,40.6,0
"2019-02-18 22:27:07+00",28.7,30.7,,40.9,-1087,694,76,1016.31,40.5,0
"2019-02-18 22:32:07+00",35.9,39.9,,40.6,-1388,815,90,1016.17,40.2,0
"2019-02-18 22:37:07+00",32.2,37.2,,40.3,-1252,730,100,1016.45,40,0
"2019-02-18 22:42:07+00",30.0,34.0,,40.2,-1149,699,83,1016.56,39.8,0
"2019-02-18 22:47:07+00",29.6,35.6,,40.1,-1094,762,104,1016.81,39.7,0
"2019-02-18 22:52:07+00",30.3,33.3,,40.2,-1117,774,75,1017.08,39.7,0
"2019-02-18 22:57:07+00",29.6,32.6,,40,-1138,701,71,1017.16,39.5,0
"2019-02-18 23:02:07+00",24.8,30.8,,39.8,-920,632,104,1017.48,39.4,0
"2019-02-18 23:07:07+00",27.2,30.2,,39.7,-952,775,84,1017.65,39.3,0
"2019-02-18 23:12:07+00",32.0,35.0,,39.7,-1166,825,81,1017.75,39.3,0
"2019-02-18 23:17:07+00",30.0,35.0,,39.6,-1124,773,76,1017.82,39.2,0
"2019-02-18 23:22:07+00",26.9,30.9,,39.5,-974,708,61,1018.09,39.1,0
"2019-02-18 23:27:07+00",22.2,29.2,,39.3,-719,676,103,1018.29,39,0
"2019-02-18 23:32:07+00",24.7,30.7,,39.3,-745,820,87,1018.53,38.9,0
"2019-02-18 23:37:07+00",27.7,32.7,,39.2,-889,867,113,1018.57,38.8,0
"2019-02-18 23:42:07+00",27.8,32.8,,39.2,-866,913,70,1018.85,38.8,0
"2019-02-18 23:47:07+00",30.5,34.5,,39.2,-956,978,95,1019.03,38.8,0
"2019-02-18 23:52:07+00",24.5,29.5,,39,-776,776,102,1019.14,38.7,0
"2019-02-18 23:57:07+00",31.6,35.6,,38.9,-936,1047,98,1019.35,38.6,0
